Location: Eastlake (historical)
(39.0077°N, 122.6678°W)
Time: 04:09:14
(UTC+00:00)

USA 234 - Pass Details

Date: 25 November 2020
Orbit: 1098 x 1110 km, 123.0° (Epoch: 22 January)

Event Time Altitude Azimuth Distance (km) Brightness Sun altitude
Rises 14:11:24 0° 43° (NE) 3,938 6.5 -10.5°
Reaches altitude 10° 14:13:55 10° 40° (NE) 2,978 5.8 -10.0°
Maximum altitude 14:20:22 62° 322° (NW) 1,239 3.3 -8.8°
Drops below altitude 10° 14:26:48 10° 244° (WSW) 2,964 5.1 -7.7°
Sets 14:29:18 0° 241° (WSW) 3,918 5.8 -7.2°
